カタログに戻る

TDRS 6

運用中通信GEO
NORAD 22314·PAYLOAD·🇺🇸 United States

打ち上げ Jan 13, 1993 から Cape Canaveral Space Force Station

Loading…

TLE

最新Source: Space-Track

元期: Sep 14, 2026, 16:55 UTC

1 22314U 93003B   26257.70521041 -.00000301  00000-0  00000-0 0  9994
2 22314  14.1859 356.3818 0009643 200.1077   5.2795  1.00275067123300

AllMySatでTDRS 6をリアルタイム追跡

Download on the App Store